LUCH-5V

Last updated on Sun Apr 12 2026 00:02:53 GMT+0000 (Coordinated Universal Time)

1 39727U 14023A 26101.46816175 -.00000262 00000+0 00000+0 0 9995 2 39727 4.9689 70.3905 0003042 328.9981 63.5088 1.00268199 43697
UTC large
Height (km)
Speed (km/s)
/
Latitude / Longitude
Inclination (degrees)
Orbital Period (minutes)
Azimuth
Elevation
Range (km)
Doppler Factor

Next 0 passes for location: London (51.5072 / 0.1276)

Sorry there are no passes over London.
LUCH-5V